This demonstration page uses our WeatherBlox Daily Observations layout. Learn more.

Left ArrowRight Arrow

41.86663, -103.66717

Hourly Observations for August 11, 2021

Temp ( °F °C ) Dew Point ( °F °C ) Humidity (%) Winds ( mph kmh ) Pressure ( in mb ) Visibility ( mi km ) Precip ( " mm )
12:53 am 00:53 Clear 64 17.8 29 -1.7 27 27 NNW 9 15 29.79 1009 10 16 N/A
1:53 am 01:53 Clear 57 13.9 33 0.6 41 41 NNW 7 11 29.84 1010 10 16 N/A
2:53 am 02:53 Clear 56 13.3 36 2.2 47 47 WNW 7 11 29.84 1011 10 16 N/A
3:53 am 03:53 Clear 55 12.8 36 2.2 49 49 NW 7 11 29.85 1011 10 16 N/A
4:53 am 04:53 Clear 54 12.2 38 3.3 55 55 WNW 9 15 29.87 1012 10 16 N/A
5:53 am 05:53 Clear 56 13.3 36 2.2 47 47 NW 9 15 29.88 1012 9 14 N/A
6:53 am 06:53 Sunny 57 13.9 36 2.2 45 45 NNW 10 17 29.90 1012 8 13 N/A
7:53 am 07:53 Sunny 61 16.1 38 3.3 43 43 W 9 15 29.93 1014 10 16 N/A
8:53 am 08:53 Sunny 70 21.1 37 2.8 30 30 NW 9 15 29.94 1014 8 13 N/A
9:53 am 09:53 Sunny 77 25 42 5.6 29 29 NW 5 7 29.94 1014 7 11 N/A
10:53 am 10:53 Sunny 81 27.2 41 5 24 24 VRB 3 6 29.93 1014 10 16 N/A
11:53 am 11:53 Sunny 84 28.9 44 6.7 25 25 VRB 5 7 29.91 1013 9 14 N/A
12:53 pm 12:53 Sunny 88 31.1 46 7.8 23 23 E 9 15 29.87 1011 9 14 N/A
1:53 pm 13:53 Sunny 89 31.7 49 9.4 25 25 E 13 20 29.85 1011 10 16 N/A
2:53 pm 14:53 Sunny 90 32.2 49 9.4 24 24 E 10 17 29.83 1010 10 16 N/A
3:53 pm 15:53 Sunny 92 33.3 46 7.8 21 21 E 10 17 29.80 1009 10 16 N/A
4:53 pm 16:53 Sunny 93 33.9 48 8.9 21 21 E 12 19 29.78 1009 10 16 N/A
5:53 pm 17:53 Sunny 91 32.8 53 11.7 27 27 E 9 15 29.78 1008 10 16 N/A
6:53 pm 18:53 Sunny 86 30 56 13.3 36 36 E 8 13 29.78 1009 9 14 N/A
7:53 pm 19:53 Sunny 79 26.1 53 11.7 41 41 E 9 15 29.79 1009 8 13 N/A
8:53 pm 20:53 Clear 73 22.8 52 11.1 48 48 E 9 15 29.79 1009 9 14 N/A
9:53 pm 21:53 Clear 70 21.1 50 10 49 49 E 8 13 29.80 1009 8 13 N/A
10:53 pm 22:53 Clear 68 20 49 9.4 51 51 E 10 17 29.81 1010 9 14 N/A
11:53 pm 23:53 Clear 68 20 49 9.4 51 51 E 9 15 29.81 1010 10 16 N/A

Powered by AerisWeather